Miscellaneous Local Product
Issued by NWS Hastings, NE

Home | Current Version | Previous Version | Graphics & Text | Print | Product List | Glossary On
Versions: 1 2 3 4 5 6 7 8 9 10 11 12 13 14 15 16 17 18 19 20 21 22 23 24 25 26 27 28 29 30 31 32 33 34 35 36 37 38 39 40 41 42 43 44 45 46 47 48 49 50
639
AXUS43 KGID 251402
MISGRI

GID CWA HOURLY WEATHER ROUNDUP
NATIONAL WEATHER SERVICE HASTINGS NE
900 AM CDT THU MAY 25 2017

NOTE: "FAIR" INDICATES FEW OR NO CLOUDS BELOW 12,000 FEET WITH NO
SIGNIFICANT WEATHER AND/OR OBSTRUCTIONS TO VISIBILITY.

...SOUTH CENTRAL NEBRASKA...

CITY           SKY/WX    TMP DP  RH WIND       PRES   REMARKS
GRAND ISLAND   SUNNY     58  46  64 S21G28    29.58R
HASTINGS       CLOUDY    58  44  60 S16G25    29.58S
KEARNEY        SUNNY     59  43  55 S28G33    29.56S
ORD            SUNNY     59  43  55 S20G28    29.55R
YORK           SUNNY     59  45  58 S20G26    29.60S
AURORA         SUNNY     58  44  59 S15G25    29.58S
LEXINGTON      MOSUNNY   54  46  72 S14       29.54S
HOLDREGE       SUNNY     55  44  66 S15G26    29.56R
HEBRON         SUNNY     59  46  61 S17       29.62F

...NEBRASKA PANHANDLE...

CITY           SKY/WX    TMP DP  RH WIND       PRES   REMARKS
CHADRON        CLOUDY    58  46  64 W5        29.54R
ALLIANCE       PTSUNNY   58  51  78 MISG      29.52R
SCOTTSBLUFF    PTSUNNY   58  46  64 NW7       29.54S
SIDNEY         CLOUDY    59  48  67 N10       29.55S

...WESTERN AND NORTH CENTRAL NEBRASKA...

CITY           SKY/WX    TMP DP  RH WIND       PRES   REMARKS
VALENTINE      PTSUNNY   62  46  55 W13       29.47F
AINSWORTH      CLOUDY    54  46  75 SW14      29.49R
ONEILL         SUNNY     59  43  56 S17G25    29.53R
BROKEN BOW     CLOUDY    55  46  71 S14G25    29.54R
IMPERIAL       CLOUDY    61  48  62 NW16G28   29.50S
NORTH PLATTE   PTSUNNY   54  48  80 SE5       29.52S
MCCOOK         MOSUNNY   58  48  69 S9        29.51R

...EASTERN NEBRASKA...

CITY           SKY/WX    TMP DP  RH WIND       PRES   REMARKS
NORFOLK        CLOUDY    59  44  57 S18G30    29.58S
SO SIOUX CITY  MOSUNNY   58  51  78 SE12G22   29.63F
TEKAMAH        MOSUNNY   60  51  72 SE16      29.65F
ALBION         SUNNY     60  44  54 S18G24    29.59R
OMAHA EPPLEY   CLOUDY    60  49  66 S15       29.67S
OFFUTT AFB     PTSUNNY   58  49  72 S10       29.67S
MILLARD        CLOUDY    60  51  73 SE8       29.67S
LINCOLN        LGT RAIN  61  49  64 S13       29.65R
NEBRASKA CITY  SUNNY     60  47  63 S13G18    29.68R
BEATRICE       CLOUDY    58  48  69 S9        29.64S
FALLS CITY     SUNNY     61  50  67 S12       29.68S

...NORTHERN KANSAS...

CITY           SKY/WX    TMP DP  RH WIND       PRES   REMARKS
GOODLAND       MOSUNNY   60  50  69 SW9       29.55R
HILL CITY      MOSUNNY   60  47  61 S17G29    29.53F
NORTON         SUNNY     55  45  67 S13       29.54R
PHILLIPSBURG   SUNNY     59  46  63 SE14G21   29.56S
SMITH CENTER   SUNNY     55  46  71 SE18G26   29.57F
HAYS           MOSUNNY   60  48  64 S16       29.57S
RUSSELL        SUNNY     60  47  61 S24G33    29.55F
CONCORDIA      LGT RAIN  60  47  61 S21G28    29.62S
SALINA         SUNNY     63  47  55 S18G26    29.62F
TOPEKA         SUNNY     62  51  67 SE12      29.70S



USA.gov is the U.S. government's official web portal to all federal, state and local government web resources and services.